station,date_time,longitude_east,latitude_north,depth,sw_sal,sw_sal_result_value_qualifier,sea_water_temperature,sea_water_temperature_result_value_qualifier,sea_water_pressure,sea_water_pressure_result_value_qualifier,KD_PAR,KD_PAR_result_value_qualifier
CH7-2,2019-08-24T20:00:00Z,-79.66,54.62,3.40,15.93,,11.50,,, NC,, NC
CH7-2,2019-08-24T21:00:00Z,-79.66,54.62,3.40,16.12,,11.55,,, NC,, NC
CH7-2,2019-08-24T22:00:00Z,-79.66,54.62,3.40,16.28,,11.32,,, NC,, NC
CH7-2,2019-08-24T23:00:00Z,-79.66,54.62,3.40,17.29,,9.64,,, NC,, NC
CH7-2,2019-08-25T00:00:00Z,-79.66,54.62,3.40,17.36,,9.57,,, NC,, NC
CH7-2,2019-08-25T01:00:00Z,-79.66,54.62,3.40,17.36,,9.66,,, NC,, NC
CH7-2,2019-08-25T02:00:00Z,-79.66,54.62,3.40,17.32,,9.83,,, NC,, NC
CH7-2,2019-08-25T03:00:00Z,-79.66,54.62,3.40,17.23,,9.98,,, NC,, NC
CH7-2,2019-08-25T04:00:00Z,-79.66,54.62,3.40,17.25,,10.05,,, NC,, NC
CH7-2,2019-08-25T05:00:00Z,-79.66,54.62,3.40,17.05,,10.19,,, NC,, NC
CH7-2,2019-08-25T06:00:00Z,-79.66,54.62,3.40,17.00,,10.30,,, NC,, NC
CH7-2,2019-08-25T07:00:00Z,-79.66,54.62,3.40,16.97,,10.37,,, NC,, NC
CH7-2,2019-08-25T08:00:00Z,-79.66,54.62,3.40,16.66,,10.68,,, NC,, NC
CH7-2,2019-08-25T09:00:00Z,-79.66,54.62,3.40,16.54,,10.87,,, NC,, NC
CH7-2,2019-08-25T10:00:00Z,-79.66,54.62,3.40,16.64,,10.69,,, NC,, NC
CH7-2,2019-08-25T11:00:00Z,-79.66,54.62,3.40,16.63,,10.72,,, NC,, NC
CH7-2,2019-08-25T12:00:00Z,-79.66,54.62,3.40,16.80,,10.77,,, NC,, NC
CH7-2,2019-08-25T13:00:00Z,-79.66,54.62,3.40,16.70,,11.04,,, NC,, NC
CH7-2,2019-08-25T14:00:00Z,-79.66,54.62,3.40,16.80,,11.20,,, NC,, NC
CH7-2,2019-08-25T15:00:00Z,-79.66,54.62,3.40,16.83,,11.23,,, NC,, NC
CH7-2,2019-08-25T16:00:00Z,-79.66,54.62,3.40,16.88,,11.23,,, NC,, NC
CH7-2,2019-08-25T17:00:00Z,-79.66,54.62,3.40,16.86,,11.25,,, NC,, NC
CH7-2,2019-08-25T18:00:00Z,-79.66,54.62,3.40,17.05,,10.93,,, NC,, NC
CH7-2,2019-08-25T19:00:00Z,-79.66,54.62,3.40,16.99,,11.12,,, NC,, NC
CH7-2,2019-08-25T20:00:00Z,-79.66,54.62,3.40,16.85,,11.45,,, NC,, NC
CH7-2,2019-08-25T21:00:00Z,-79.66,54.62,3.40,16.56,,11.80,,, NC,, NC
CH7-2,2019-08-25T22:00:00Z,-79.66,54.62,3.40,16.67,,11.70,,, NC,, NC
CH7-2,2019-08-25T23:00:00Z,-79.66,54.62,3.40,16.74,,11.62,,, NC,, NC
CH7-2,2019-08-26T00:00:00Z,-79.66,54.62,3.40,16.95,,11.27,,, NC,, NC
CH7-2,2019-08-26T01:00:00Z,-79.66,54.62,3.40,17.01,,11.11,,, NC,, NC
CH7-2,2019-08-26T02:00:00Z,-79.66,54.62,3.40,16.92,,11.26,,, NC,, NC
CH7-2,2019-08-26T03:00:00Z,-79.66,54.62,3.40,16.93,,11.23,,, NC,, NC
CH7-2,2019-08-26T04:00:00Z,-79.66,54.62,3.40,16.96,,11.18,,, NC,, NC
CH7-2,2019-08-26T05:00:00Z,-79.66,54.62,3.40,16.96,,11.13,,, NC,, NC
CH7-2,2019-08-26T06:00:00Z,-79.66,54.62,3.40,16.98,,11.07,,, NC,, NC
CH7-2,2019-08-26T07:00:00Z,-79.66,54.62,3.40,16.96,,11.06,,, NC,, NC
CH7-2,2019-08-26T08:00:00Z,-79.66,54.62,3.40,16.94,,11.07,,, NC,, NC
CH7-2,2019-08-26T09:00:00Z,-79.66,54.62,3.40,16.85,,11.23,,, NC,, NC
CH7-2,2019-08-26T10:00:00Z,-79.66,54.62,3.40,16.79,,11.40,,, NC,, NC
CH7-2,2019-08-26T11:00:00Z,-79.66,54.62,3.40,16.77,,11.52,,, NC,, NC
CH7-2,2019-08-26T12:00:00Z,-79.66,54.62,3.40,16.85,,11.37,,, NC,, NC
CH7-2,2019-08-26T13:00:00Z,-79.66,54.62,3.40,16.85,,11.50,,, NC,, NC
CH7-2,2019-08-26T14:00:00Z,-79.66,54.62,3.40,17.00,,11.06,,, NC,, NC
CH7-2,2019-08-26T15:00:00Z,-79.66,54.62,3.40,17.06,,10.91,,, NC,, NC
CH7-2,2019-08-26T16:00:00Z,-79.66,54.62,3.40,17.02,,11.36,,, NC,, NC
CH7-2,2019-08-26T17:00:00Z,-79.66,54.62,3.40,16.98,,11.57,,, NC,, NC
CH7-2,2019-08-26T18:00:00Z,-79.66,54.62,3.40,16.99,,11.55,,, NC,, NC
CH7-2,2019-08-26T19:00:00Z,-79.66,54.62,3.40,16.96,,11.47,,, NC,, NC
CH7-2,2019-08-26T20:00:00Z,-79.66,54.62,3.40,16.89,,11.62,,, NC,, NC
CH7-2,2019-08-26T21:00:00Z,-79.66,54.62,3.40,16.88,,11.56,,, NC,, NC
CH7-2,2019-08-26T22:00:00Z,-79.66,54.62,3.40,16.91,,11.50,,, NC,, NC
CH7-2,2019-08-26T23:00:00Z,-79.66,54.62,3.40,16.92,,11.50,,, NC,, NC
CH7-2,2019-08-27T00:00:00Z,-79.66,54.62,3.40,16.95,,11.40,,, NC,, NC
CH7-2,2019-08-27T01:00:00Z,-79.66,54.62,3.40,16.99,,11.41,,, NC,, NC
CH7-2,2019-08-27T02:00:00Z,-79.66,54.62,3.40,16.98,,11.26,,, NC,, NC
CH7-2,2019-08-27T03:00:00Z,-79.66,54.62,3.40,17.02,,11.18,,, NC,, NC
CH7-2,2019-08-27T04:00:00Z,-79.66,54.62,3.40,17.02,,11.13,,, NC,, NC
CH7-2,2019-08-27T05:00:00Z,-79.66,54.62,3.40,17.02,,11.08,,, NC,, NC
CH7-2,2019-08-27T06:00:00Z,-79.66,54.62,3.40,17.02,,11.04,,, NC,, NC
CH7-2,2019-08-27T07:00:00Z,-79.66,54.62,3.40,17.01,,11.11,,, NC,, NC
CH7-2,2019-08-27T08:00:00Z,-79.66,54.62,3.40,17.00,,11.21,,, NC,, NC
CH7-2,2019-08-27T09:00:00Z,-79.66,54.62,3.40,17.00,,11.23,,, NC,, NC
CH7-2,2019-08-27T10:00:00Z,-79.66,54.62,3.40,16.96,,11.36,,, NC,, NC
CH7-2,2019-08-27T11:00:00Z,-79.66,54.62,3.40,16.96,,11.35,,, NC,, NC
CH7-2,2019-08-27T12:00:00Z,-79.66,54.62,3.40,16.92,,11.41,,, NC,, NC
CH7-2,2019-08-27T13:00:00Z,-79.66,54.62,3.40,16.91,,11.40,,, NC,, NC
CH7-2,2019-08-27T14:00:00Z,-79.66,54.62,3.40,16.90,,11.41,,, NC,, NC
CH7-2,2019-08-27T15:00:00Z,-79.66,54.62,3.40,16.91,,11.42,,, NC,, NC
CH7-2,2019-08-27T16:00:00Z,-79.66,54.62,3.40,16.90,,11.42,,, NC,, NC
CH7-2,2019-08-27T17:00:00Z,-79.66,54.62,3.40,16.90,,11.43,,, NC,, NC
CH7-2,2019-08-27T18:00:00Z,-79.66,54.62,3.40,16.80,,11.65,,, NC,, NC
CH7-2,2019-08-27T19:00:00Z,-79.66,54.62,3.40,16.66,,11.81,,, NC,, NC
CH7-2,2019-08-27T20:00:00Z,-79.66,54.62,3.40,16.53,,11.56,,, NC,, NC
CH7-2,2019-08-27T21:00:00Z,-79.66,54.62,3.40,16.48,,11.75,,, NC,, NC
CH7-2,2019-08-27T22:00:00Z,-79.66,54.62,3.40,16.47,,11.89,,, NC,, NC
CH7-2,2019-08-27T23:00:00Z,-79.66,54.62,3.40,16.36,,12.45,,, NC,, NC
CH7-2,2019-08-28T00:00:00Z,-79.66,54.62,3.40,16.43,,12.72,,, NC,, NC
CH7-2,2019-08-28T01:00:00Z,-79.66,54.62,3.40,16.37,,12.80,,, NC,, NC
CH7-2,2019-08-28T02:00:00Z,-79.66,54.62,3.40,16.38,,12.88,,, NC,, NC
CH7-2,2019-08-28T03:00:00Z,-79.66,54.62,3.40,16.44,,12.83,,, NC,, NC
CH7-2,2019-08-28T04:00:00Z,-79.66,54.62,3.40,16.43,,12.80,,, NC,, NC
CH7-2,2019-08-28T05:00:00Z,-79.66,54.62,3.40,16.55,,12.64,,, NC,, NC
CH7-2,2019-08-28T06:00:00Z,-79.66,54.62,3.40,16.59,,12.46,,, NC,, NC
CH7-2,2019-08-28T07:00:00Z,-79.66,54.62,3.40,16.64,,12.41,,, NC,, NC
CH7-2,2019-08-28T08:00:00Z,-79.66,54.62,3.40,16.44,,11.74,,, NC,, NC
CH7-2,2019-08-28T09:00:00Z,-79.66,54.62,3.40,16.44,,11.81,,, NC,, NC
CH7-2,2019-08-28T10:00:00Z,-79.66,54.62,3.40,16.39,,12.15,,, NC,, NC
CH7-2,2019-08-28T11:00:00Z,-79.66,54.62,3.40,16.45,,12.77,,, NC,, NC
CH7-2,2019-08-28T12:00:00Z,-79.66,54.62,3.40,16.17,,13.39,,, NC,, NC
CH7-2,2019-08-28T13:00:00Z,-79.66,54.62,3.40,16.29,,13.51,,, NC,, NC
CH7-2,2019-08-28T14:00:00Z,-79.66,54.62,3.40,16.35,,13.60,,, NC,, NC
CH7-2,2019-08-28T15:00:00Z,-79.66,54.62,3.40,16.43,,13.58,,, NC,, NC
CH7-2,2019-08-28T16:00:00Z,-79.66,54.62,3.40,16.44,,13.60,,, NC,, NC
CH7-2,2019-08-28T17:00:00Z,-79.66,54.62,3.40,16.52,,13.48,,, NC,, NC
CH7-2,2019-08-28T18:00:00Z,-79.66,54.62,3.40,16.57,,13.12,,, NC,, NC
CH7-2,2019-08-28T19:00:00Z,-79.66,54.62,3.40,16.54,,13.06,,, NC,, NC
CH7-2,2019-08-28T20:00:00Z,-79.66,54.62,3.40,16.31,,12.34,,, NC,, NC
CH7-2,2019-08-28T21:00:00Z,-79.66,54.62,3.40,16.24,,12.26,,, NC,, NC
CH7-2,2019-08-28T22:00:00Z,-79.66,54.62,3.40,16.27,,12.34,,, NC,, NC
CH7-2,2019-08-28T23:00:00Z,-79.66,54.62,3.40,16.31,,12.50,,, NC,, NC
CH7-2,2019-08-29T00:00:00Z,-79.66,54.62,3.40,16.38,,13.24,,, NC,, NC
CH7-2,2019-08-29T01:00:00Z,-79.66,54.62,3.40,16.23,,13.76,,, NC,, NC
CH7-2,2019-08-29T02:00:00Z,-79.66,54.62,3.40,16.28,,13.66,,, NC,, NC
CH7-2,2019-08-29T03:00:00Z,-79.66,54.62,3.40,16.31,,13.60,,, NC,, NC
CH7-2,2019-08-29T04:00:00Z,-79.66,54.62,3.40,16.41,,13.29,,, NC,, NC
CH7-2,2019-08-29T05:00:00Z,-79.66,54.62,3.40,16.45,,13.14,,, NC,, NC
CH7-2,2019-08-29T06:00:00Z,-79.66,54.62,3.40,16.44,,12.92,,, NC,, NC
CH7-2,2019-08-29T07:00:00Z,-79.66,54.62,3.40,16.35,,12.62,,, NC,, NC
CH7-2,2019-08-29T08:00:00Z,-79.66,54.62,3.40,16.34,,12.57,,, NC,, NC
CH7-2,2019-08-29T09:00:00Z,-79.66,54.62,3.40,16.33,,12.53,,, NC,, NC
CH7-2,2019-08-29T10:00:00Z,-79.66,54.62,3.40,16.36,,12.59,,, NC,, NC
CH7-2,2019-08-29T11:00:00Z,-79.66,54.62,3.40,16.28,,12.53,,, NC,, NC
CH7-2,2019-08-29T12:00:00Z,-79.66,54.62,3.40,16.29,,12.72,,, NC,, NC
CH7-2,2019-08-29T13:00:00Z,-79.66,54.62,3.40,16.28,,12.73,,, NC,, NC
CH7-2,2019-08-29T14:00:00Z,-79.66,54.62,3.40,16.29,,12.79,,, NC,, NC
CH7-2,2019-08-29T15:00:00Z,-79.66,54.62,3.40,16.28,,12.90,,, NC,, NC
CH7-2,2019-08-29T16:00:00Z,-79.66,54.62,3.40,16.28,,12.83,,, NC,, NC
CH7-2,2019-08-29T17:00:00Z,-79.66,54.62,3.40,16.28,,12.78,,, NC,, NC
CH7-2,2019-08-29T18:00:00Z,-79.66,54.62,3.40,16.29,,12.72,,, NC,, NC
CH7-2,2019-08-29T19:00:00Z,-79.66,54.62,3.40,16.29,,12.60,,, NC,, NC
CH7-2,2019-08-29T20:00:00Z,-79.66,54.62,3.40,16.27,,12.53,,, NC,, NC
CH7-2,2019-08-29T21:00:00Z,-79.66,54.62,3.40,16.28,,12.55,,, NC,, NC
CH7-2,2019-08-29T22:00:00Z,-79.66,54.62,3.40,16.25,,12.51,,, NC,, NC
CH7-2,2019-08-29T23:00:00Z,-79.66,54.62,3.40,16.24,,12.62,,, NC,, NC
CH7-2,2019-08-30T00:00:00Z,-79.66,54.62,3.40,16.17,,12.46,,, NC,, NC
CH7-2,2019-08-30T01:00:00Z,-79.66,54.62,3.40,16.16,,12.50,,, NC,, NC
CH7-2,2019-08-30T02:00:00Z,-79.66,54.62,3.40,16.20,,12.73,,, NC,, NC
CH7-2,2019-08-30T03:00:00Z,-79.66,54.62,3.40,16.17,,12.69,,, NC,, NC
CH7-2,2019-08-30T04:00:00Z,-79.66,54.62,3.40,16.14,,12.88,,, NC,, NC
CH7-2,2019-08-30T05:00:00Z,-79.66,54.62,3.40,16.18,,12.49,,, NC,, NC
CH7-2,2019-08-30T06:00:00Z,-79.66,54.62,3.40,16.17,,12.40,,, NC,, NC
CH7-2,2019-08-30T07:00:00Z,-79.66,54.62,3.40,16.16,,12.24,,, NC,, NC
CH7-2,2019-08-30T08:00:00Z,-79.66,54.62,3.40,16.18,,12.20,,, NC,, NC
CH7-2,2019-08-30T09:00:00Z,-79.66,54.62,3.40,16.18,,12.21,,, NC,, NC
CH7-2,2019-08-30T10:00:00Z,-79.66,54.62,3.40,16.18,,12.24,,, NC,, NC
CH7-2,2019-08-30T11:00:00Z,-79.66,54.62,3.40,16.18,,12.25,,, NC,, NC
CH7-2,2019-08-30T12:00:00Z,-79.66,54.62,3.40,16.16,,12.33,,, NC,, NC
CH7-2,2019-08-30T13:00:00Z,-79.66,54.62,3.40,16.16,,12.36,,, NC,, NC
CH7-2,2019-08-30T14:00:00Z,-79.66,54.62,3.40,16.15,,12.38,,, NC,, NC
CH7-2,2019-08-30T15:00:00Z,-79.66,54.62,3.40,16.15,,12.40,,, NC,, NC
CH7-2,2019-08-30T16:00:00Z,-79.66,54.62,3.40,16.16,,12.28,,, NC,, NC
CH7-2,2019-08-30T17:00:00Z,-79.66,54.62,3.40,16.16,,12.24,,, NC,, NC
CH7-2,2019-08-30T18:00:00Z,-79.66,54.62,3.40,16.19,,12.13,,, NC,, NC
CH7-2,2019-08-30T19:00:00Z,-79.66,54.62,3.40,16.21,,11.95,,, NC,, NC
CH7-2,2019-08-30T20:00:00Z,-79.66,54.62,3.40,16.23,,11.91,,, NC,, NC
CH7-2,2019-08-30T21:00:00Z,-79.66,54.62,3.40,16.24,,11.90,,, NC,, NC
CH7-2,2019-08-30T22:00:00Z,-79.66,54.62,3.40,16.26,,11.80,,, NC,, NC
CH7-2,2019-08-30T23:00:00Z,-79.66,54.62,3.40,16.28,,11.71,,, NC,, NC
CH7-2,2019-08-31T00:00:00Z,-79.66,54.62,3.40,16.31,,11.64,,, NC,, NC
CH7-2,2019-08-31T01:00:00Z,-79.66,54.62,3.40,16.32,,11.59,,, NC,, NC
CH7-2,2019-08-31T02:00:00Z,-79.66,54.62,3.40,16.33,,11.47,,, NC,, NC
CH7-2,2019-08-31T03:00:00Z,-79.66,54.62,3.40,16.31,,11.42,,, NC,, NC
CH7-2,2019-08-31T04:00:00Z,-79.66,54.62,3.40,16.43,,11.06,,, NC,, NC
CH7-2,2019-08-31T05:00:00Z,-79.66,54.62,3.40,16.36,,11.12,,, NC,, NC
CH7-2,2019-08-31T06:00:00Z,-79.66,54.62,3.40,16.53,,10.79,,, NC,, NC
CH7-2,2019-08-31T07:00:00Z,-79.66,54.62,3.40,16.65,,10.38,,, NC,, NC
CH7-2,2019-08-31T08:00:00Z,-79.66,54.62,3.40,16.67,,10.22,,, NC,, NC
CH7-2,2019-08-31T09:00:00Z,-79.66,54.62,3.40,16.68,,10.18,,, NC,, NC
CH7-2,2019-08-31T10:00:00Z,-79.66,54.62,3.40,16.68,,10.18,,, NC,, NC
CH7-2,2019-08-31T11:00:00Z,-79.66,54.62,3.40,16.67,,10.17,,, NC,, NC
CH7-2,2019-08-31T12:00:00Z,-79.66,54.62,3.40,16.66,,10.19,,, NC,, NC
CH7-2,2019-08-31T13:00:00Z,-79.66,54.62,3.40,16.68,,10.18,,, NC,, NC
CH7-2,2019-08-31T14:00:00Z,-79.66,54.62,3.40,16.66,,10.29,,, NC,, NC
CH7-2,2019-08-31T15:00:00Z,-79.66,54.62,3.40,16.65,,10.37,,, NC,, NC
CH7-2,2019-08-31T16:00:00Z,-79.66,54.62,3.40,16.66,,10.38,,, NC,, NC
CH7-2,2019-08-31T17:00:00Z,-79.66,54.62,3.40,16.57,,10.38,,, NC,, NC
CH7-2,2019-08-31T18:00:00Z,-79.66,54.62,3.40,16.60,,10.35,,, NC,, NC
CH7-2,2019-08-31T19:00:00Z,-79.66,54.62,3.40,16.94,,10.27,,, NC,, NC
CH7-2,2019-08-31T20:00:00Z,-79.66,54.62,3.40,16.96,,10.28,,, NC,, NC
CH7-2,2019-08-31T21:00:00Z,-79.66,54.62,3.40,16.94,,10.29,,, NC,, NC
CH7-2,2019-08-31T22:00:00Z,-79.66,54.62,3.40,16.88,,10.27,,, NC,, NC
CH7-2,2019-08-31T23:00:00Z,-79.66,54.62,3.40,16.90,,10.18,,, NC,, NC
CH7-2,2019-09-01T00:00:00Z,-79.66,54.62,3.40,16.80,,10.24,,, NC,, NC
CH7-2,2019-09-01T01:00:00Z,-79.66,54.62,3.40,16.63,,10.44,,, NC,, NC
CH7-2,2019-09-01T02:00:00Z,-79.66,54.62,3.40,16.61,,10.45,,, NC,, NC
CH7-2,2019-09-01T03:00:00Z,-79.66,54.62,3.40,16.67,,10.28,,, NC,, NC
CH7-2,2019-09-01T04:00:00Z,-79.66,54.62,3.40,16.52,,10.45,,, NC,, NC
CH7-2,2019-09-01T05:00:00Z,-79.66,54.62,3.40,16.34,,10.53,,, NC,, NC
CH7-2,2019-09-01T06:00:00Z,-79.66,54.62,3.40,16.26,,10.68,,, NC,, NC
CH7-2,2019-09-01T07:00:00Z,-79.66,54.62,3.40,16.28,,10.73,,, NC,, NC
CH7-2,2019-09-01T08:00:00Z,-79.66,54.62,3.40,16.32,,10.74,,, NC,, NC
CH7-2,2019-09-01T09:00:00Z,-79.66,54.62,3.40,16.42,,10.66,,, NC,, NC
CH7-2,2019-09-01T10:00:00Z,-79.66,54.62,3.40,16.50,,10.59,,, NC,, NC
CH7-2,2019-09-01T11:00:00Z,-79.66,54.62,3.40,16.56,,10.53,,, NC,, NC
CH7-2,2019-09-01T12:00:00Z,-79.66,54.62,3.40,16.53,,10.57,,, NC,, NC
CH7-2,2019-09-01T13:00:00Z,-79.66,54.62,3.40,16.48,,10.62,,, NC,, NC
CH7-2,2019-09-01T14:00:00Z,-79.66,54.62,3.40,16.37,,10.67,,, NC,, NC
CH7-2,2019-09-01T15:00:00Z,-79.66,54.62,3.40,16.34,,10.63,,, NC,, NC
CH7-2,2019-09-01T16:00:00Z,-79.66,54.62,3.40,16.33,,10.62,,, NC,, NC
CH7-2,2019-09-01T17:00:00Z,-79.66,54.62,3.40,16.33,,10.76,,, NC,, NC
CH7-2,2019-09-01T18:00:00Z,-79.66,54.62,3.40,16.27,,10.79,,, NC,, NC
CH7-2,2019-09-01T19:00:00Z,-79.66,54.62,3.40,16.22,,10.84,,, NC,, NC
CH7-2,2019-09-01T20:00:00Z,-79.66,54.62,3.40,16.42,,10.55,,, NC,, NC
CH7-2,2019-09-01T21:00:00Z,-79.66,54.62,3.40,16.53,,10.49,,, NC,, NC
CH7-2,2019-09-01T22:00:00Z,-79.66,54.62,3.40,16.59,,10.39,,, NC,, NC
CH7-2,2019-09-01T23:00:00Z,-79.66,54.62,3.40,16.79,,10.14,,, NC,, NC
CH7-2,2019-09-02T00:00:00Z,-79.66,54.62,3.40,16.83,,10.19,,, NC,, NC
CH7-2,2019-09-02T01:00:00Z,-79.66,54.62,3.40,16.56,,10.38,,, NC,, NC
CH7-2,2019-09-02T02:00:00Z,-79.66,54.62,3.40,16.47,,10.37,,, NC,, NC
CH7-2,2019-09-02T03:00:00Z,-79.66,54.62,3.40,16.55,,10.13,,, NC,, NC
CH7-2,2019-09-02T04:00:00Z,-79.66,54.62,3.40,16.52,,10.13,,, NC,, NC
CH7-2,2019-09-02T05:00:00Z,-79.66,54.62,3.40,16.49,,10.18,,, NC,, NC
CH7-2,2019-09-02T06:00:00Z,-79.66,54.62,3.40,16.39,,10.22,,, NC,, NC
CH7-2,2019-09-02T07:00:00Z,-79.66,54.62,3.40,16.51,,9.73,,, NC,, NC
CH7-2,2019-09-02T08:00:00Z,-79.66,54.62,3.40,16.65,,9.60,,, NC,, NC
CH7-2,2019-09-02T09:00:00Z,-79.66,54.62,3.40,16.72,,9.60,,, NC,, NC
CH7-2,2019-09-02T10:00:00Z,-79.66,54.62,3.40,16.75,,9.54,,, NC,, NC
CH7-2,2019-09-02T11:00:00Z,-79.66,54.62,3.40,16.82,,9.46,,, NC,, NC
CH7-2,2019-09-02T12:00:00Z,-79.66,54.62,3.40,16.86,,9.42,,, NC,, NC
CH7-2,2019-09-02T13:00:00Z,-79.66,54.62,3.40,16.88,,9.39,,, NC,, NC
CH7-2,2019-09-02T14:00:00Z,-79.66,54.62,3.40,17.08,,9.25,,, NC,, NC
CH7-2,2019-09-02T15:00:00Z,-79.66,54.62,3.40,17.18,,9.17,,, NC,, NC
CH7-2,2019-09-02T16:00:00Z,-79.66,54.62,3.40,17.22,,9.10,,, NC,, NC
CH7-2,2019-09-02T17:00:00Z,-79.66,54.62,3.40,17.21,,9.11,,, NC,, NC
CH7-2,2019-09-02T18:00:00Z,-79.66,54.62,3.40,17.27,,9.02,,, NC,, NC
CH7-2,2019-09-02T19:00:00Z,-79.66,54.62,3.40,17.20,,9.02,,, NC,, NC
CH7-2,2019-09-02T20:00:00Z,-79.66,54.62,3.40,17.24,,8.83,,, NC,, NC
CH7-2,2019-09-02T21:00:00Z,-79.66,54.62,3.40,17.33,,8.70,,, NC,, NC
CH7-2,2019-09-02T22:00:00Z,-79.66,54.62,3.40,17.50,,8.72,,, NC,, NC
CH7-2,2019-09-02T23:00:00Z,-79.66,54.62,3.40,17.55,,8.67,,, NC,, NC
CH7-2,2019-09-03T00:00:00Z,-79.66,54.62,3.40,17.56,,8.66,,, NC,, NC
CH7-2,2019-09-03T01:00:00Z,-79.66,54.62,3.40,17.67,,8.62,,, NC,, NC
CH7-2,2019-09-03T02:00:00Z,-79.66,54.62,3.40,17.79,,8.53,,, NC,, NC
CH7-2,2019-09-03T03:00:00Z,-79.66,54.62,3.40,17.76,,8.43,,, NC,, NC
CH7-2,2019-09-03T04:00:00Z,-79.66,54.62,3.40,17.76,,8.41,,, NC,, NC
CH7-2,2019-09-03T05:00:00Z,-79.66,54.62,3.40,17.73,,8.43,,, NC,, NC
CH7-2,2019-09-03T06:00:00Z,-79.66,54.62,3.40,17.59,,8.38,,, NC,, NC
CH7-2,2019-09-03T07:00:00Z,-79.66,54.62,3.40,17.37,,8.22,,, NC,, NC
CH7-2,2019-09-03T08:00:00Z,-79.66,54.62,3.40,17.26,,8.32,,, NC,, NC
CH7-2,2019-09-03T09:00:00Z,-79.66,54.62,3.40,17.68,,8.29,,, NC,, NC
CH7-2,2019-09-03T10:00:00Z,-79.66,54.62,3.40,18.11,,8.28,,, NC,, NC
CH7-2,2019-09-03T11:00:00Z,-79.66,54.62,3.40,18.14,,8.28,,, NC,, NC
CH7-2,2019-09-03T12:00:00Z,-79.66,54.62,3.40,18.10,,8.26,,, NC,, NC
CH7-2,2019-09-03T13:00:00Z,-79.66,54.62,3.40,18.08,,8.26,,, NC,, NC
CH7-2,2019-09-03T14:00:00Z,-79.66,54.62,3.40,18.03,,8.24,,, NC,, NC
CH7-2,2019-09-03T15:00:00Z,-79.66,54.62,3.40,17.67,,8.37,,, NC,, NC
CH7-2,2019-09-03T16:00:00Z,-79.66,54.62,3.40,17.03,,8.96,,, NC,, NC
CH7-2,2019-09-03T17:00:00Z,-79.66,54.62,3.40,17.04,,9.09,,, NC,, NC
CH7-2,2019-09-03T18:00:00Z,-79.66,54.62,3.40,16.92,,9.05,,, NC,, NC
CH7-2,2019-09-03T19:00:00Z,-79.66,54.62,3.40,16.67,,9.31,,, NC,, NC
CH7-2,2019-09-03T20:00:00Z,-79.66,54.62,3.40,17.16,,8.67,,, NC,, NC
CH7-2,2019-09-03T21:00:00Z,-79.66,54.62,3.40,17.25,,8.80,,, NC,, NC
CH7-2,2019-09-03T22:00:00Z,-79.66,54.62,3.40,17.18,,8.95,,, NC,, NC
CH7-2,2019-09-03T23:00:00Z,-79.66,54.62,3.40,17.34,,8.67,,, NC,, NC
CH7-2,2019-09-04T00:00:00Z,-79.66,54.62,3.40,17.43,,8.68,,, NC,, NC
CH7-2,2019-09-04T01:00:00Z,-79.66,54.62,3.40,17.46,,8.68,,, NC,, NC
CH7-2,2019-09-04T02:00:00Z,-79.66,54.62,3.40,17.36,,8.71,,, NC,, NC
CH7-2,2019-09-04T03:00:00Z,-79.66,54.62,3.40,16.87,,8.88,,, NC,, NC
CH7-2,2019-09-04T04:00:00Z,-79.66,54.62,3.40,16.66,,8.80,,, NC,, NC
CH7-2,2019-09-04T05:00:00Z,-79.66,54.62,3.40,16.54,,8.68,,, NC,, NC
CH7-2,2019-09-04T06:00:00Z,-79.66,54.62,3.40,16.50,,8.56,,, NC,, NC
CH7-2,2019-09-04T07:00:00Z,-79.66,54.62,3.40,16.48,,8.54,,, NC,, NC
CH7-2,2019-09-04T08:00:00Z,-79.66,54.62,3.40,16.42,,8.71,,, NC,, NC
CH7-2,2019-09-04T09:00:00Z,-79.66,54.62,3.40,16.95,,8.87,,, NC,, NC
CH7-2,2019-09-04T10:00:00Z,-79.66,54.62,3.40,16.97,,8.87,,, NC,, NC
CH7-2,2019-09-04T11:00:00Z,-79.66,54.62,3.40,16.97,,8.87,,, NC,, NC
CH7-2,2019-09-04T12:00:00Z,-79.66,54.62,3.40,17.01,,8.85,,, NC,, NC
CH7-2,2019-09-04T13:00:00Z,-79.66,54.62,3.40,17.00,,8.83,,, NC,, NC
CH7-2,2019-09-04T14:00:00Z,-79.66,54.62,3.40,16.98,,8.92,,, NC,, NC
CH7-2,2019-09-04T15:00:00Z,-79.66,54.62,3.40,16.89,,9.01,,, NC,, NC
CH7-2,2019-09-04T16:00:00Z,-79.66,54.62,3.40,16.75,,9.03,,, NC,, NC
CH7-2,2019-09-04T17:00:00Z,-79.66,54.62,3.40,16.65,,9.07,,, NC,, NC
CH7-2,2019-09-04T18:00:00Z,-79.66,54.62,3.40,16.66,,9.07,,, NC,, NC
CH7-2,2019-09-04T19:00:00Z,-79.66,54.62,3.40,16.63,,9.06,,, NC,, NC
CH7-2,2019-09-04T20:00:00Z,-79.66,54.62,3.40,16.60,,8.98,,, NC,, NC
CH7-2,2019-09-04T21:00:00Z,-79.66,54.62,3.40,16.70,,8.98,,, NC,, NC
CH7-2,2019-09-04T22:00:00Z,-79.66,54.62,3.40,16.71,,8.93,,, NC,, NC
CH7-2,2019-09-04T23:00:00Z,-79.66,54.62,3.40,16.78,,8.88,,, NC,, NC
CH7-2,2019-09-05T00:00:00Z,-79.66,54.62,3.40,16.90,,8.81,,, NC,, NC
CH7-2,2019-09-05T01:00:00Z,-79.66,54.62,3.40,17.07,,8.73,,, NC,, NC
CH7-2,2019-09-05T02:00:00Z,-79.66,54.62,3.40,17.14,,8.67,,, NC,, NC
CH7-2,2019-09-05T03:00:00Z,-79.66,54.62,3.40,17.00,,8.77,,, NC,, NC
CH7-2,2019-09-05T04:00:00Z,-79.66,54.62,3.40,16.89,,8.77,,, NC,, NC
CH7-2,2019-09-05T05:00:00Z,-79.66,54.62,3.40,16.85,,8.70,,, NC,, NC
CH7-2,2019-09-05T06:00:00Z,-79.66,54.62,3.40,16.94,,8.63,,, NC,, NC
CH7-2,2019-09-05T07:00:00Z,-79.66,54.62,3.40,16.90,,8.65,,, NC,, NC
CH7-2,2019-09-05T08:00:00Z,-79.66,54.62,3.40,16.84,,8.71,,, NC,, NC
CH7-2,2019-09-05T09:00:00Z,-79.66,54.62,3.40,16.85,,8.72,,, NC,, NC
CH7-2,2019-09-05T10:00:00Z,-79.66,54.62,3.40,16.89,,8.60,,, NC,, NC
CH7-2,2019-09-05T11:00:00Z,-79.66,54.62,3.40,17.10,,8.46,,, NC,, NC
CH7-2,2019-09-05T12:00:00Z,-79.66,54.62,3.40,17.21,,8.48,,, NC,, NC
CH7-2,2019-09-05T13:00:00Z,-79.66,54.62,3.40,17.60,,8.36,,, NC,, NC
CH7-2,2019-09-05T14:00:00Z,-79.66,54.62,3.40,17.60,,8.41,,, NC,, NC
CH7-2,2019-09-05T15:00:00Z,-79.66,54.62,3.40,17.38,,8.48,,, NC,, NC
CH7-2,2019-09-05T16:00:00Z,-79.66,54.62,3.40,17.12,,8.60,,, NC,, NC
CH7-2,2019-09-05T17:00:00Z,-79.66,54.62,3.40,17.09,,8.62,,, NC,, NC
CH7-2,2019-09-05T18:00:00Z,-79.66,54.62,3.40,17.16,,8.65,,, NC,, NC
CH7-2,2019-09-05T19:00:00Z,-79.66,54.62,3.40,17.12,,8.67,,, NC,, NC
CH7-2,2019-09-05T20:00:00Z,-79.66,54.62,3.40,17.09,,8.67,,, NC,, NC
CH7-2,2019-09-05T21:00:00Z,-79.66,54.62,3.40,17.07,,8.70,,, NC,, NC
CH7-2,2019-09-05T22:00:00Z,-79.66,54.62,3.40,16.96,,8.70,,, NC,, NC
CH7-2,2019-09-05T23:00:00Z,-79.66,54.62,3.40,17.14,,8.56,,, NC,, NC
CH7-2,2019-09-06T00:00:00Z,-79.66,54.62,3.40,17.34,,8.43,,, NC,, NC
CH7-2,2019-09-06T01:00:00Z,-79.66,54.62,3.40,17.60,,8.24,,, NC,, NC
CH7-2,2019-09-06T02:00:00Z,-79.66,54.62,3.40,17.73,,8.21,,, NC,, NC
CH7-2,2019-09-06T03:00:00Z,-79.66,54.62,3.40,17.75,,8.29,,, NC,, NC
CH7-2,2019-09-06T04:00:00Z,-79.66,54.62,3.40,17.58,,8.38,,, NC,, NC
CH7-2,2019-09-06T05:00:00Z,-79.66,54.62,3.40,17.30,,8.38,,, NC,, NC
CH7-2,2019-09-06T06:00:00Z,-79.66,54.62,3.40,17.19,,8.38,,, NC,, NC
CH7-2,2019-09-06T07:00:00Z,-79.66,54.62,3.40,17.21,,8.24,,, NC,, NC
CH7-2,2019-09-06T08:00:00Z,-79.66,54.62,3.40,17.19,,8.21,,, NC,, NC
CH7-2,2019-09-06T09:00:00Z,-79.66,54.62,3.40,17.03,,8.31,,, NC,, NC
CH7-2,2019-09-06T10:00:00Z,-79.66,54.62,3.40,17.25,,8.23,,, NC,, NC
CH7-2,2019-09-06T11:00:00Z,-79.66,54.62,3.40,17.58,,8.28,,, NC,, NC
CH7-2,2019-09-06T12:00:00Z,-79.66,54.62,3.40,17.59,,8.14,,, NC,, NC
CH7-2,2019-09-06T13:00:00Z,-79.66,54.62,3.40,17.81,,8.05,,, NC,, NC
CH7-2,2019-09-06T14:00:00Z,-79.66,54.62,3.40,17.86,,8.03,,, NC,, NC
CH7-2,2019-09-06T15:00:00Z,-79.66,54.62,3.40,18.00,,8.05,,, NC,, NC
CH7-2,2019-09-06T16:00:00Z,-79.66,54.62,3.40,17.74,,8.29,,, NC,, NC
CH7-2,2019-09-06T17:00:00Z,-79.66,54.62,3.40,17.19,,8.95,,, NC,, NC
CH7-2,2019-09-06T18:00:00Z,-79.66,54.62,3.40,16.81,,9.21,,, NC,, NC
CH7-2,2019-09-06T19:00:00Z,-79.66,54.62,3.40,16.67,,9.30,,, NC,, NC
CH7-2,2019-09-06T20:00:00Z,-79.66,54.62,3.40,16.66,,9.32,,, NC,, NC
CH7-2,2019-09-06T21:00:00Z,-79.66,54.62,3.40,16.68,,9.29,,, NC,, NC
CH7-2,2019-09-06T22:00:00Z,-79.66,54.62,3.40,17.08,,8.62,,, NC,, NC
CH7-2,2019-09-06T23:00:00Z,-79.66,54.62,3.40,17.26,,8.43,,, NC,, NC
CH7-2,2019-09-07T00:00:00Z,-79.66,54.62,3.40,17.55,,8.27,,, NC,, NC
CH7-2,2019-09-07T01:00:00Z,-79.66,54.62,3.40,17.60,,8.17,,, NC,, NC
CH7-2,2019-09-07T02:00:00Z,-79.66,54.62,3.40,17.71,,8.19,,, NC,, NC
CH7-2,2019-09-07T03:00:00Z,-79.66,54.62,3.40,17.64,,8.28,,, NC,, NC
CH7-2,2019-09-07T04:00:00Z,-79.66,54.62,3.40,17.47,,8.42,,, NC,, NC
CH7-2,2019-09-07T05:00:00Z,-79.66,54.62,3.40,17.27,,8.62,,, NC,, NC
CH7-2,2019-09-07T06:00:00Z,-79.66,54.62,3.40,16.67,,8.76,,, NC,, NC
CH7-2,2019-09-07T07:00:00Z,-79.66,54.62,3.40,16.61,,8.73,,, NC,, NC
CH7-2,2019-09-07T08:00:00Z,-79.66,54.62,3.40,16.56,,8.66,,, NC,, NC
CH7-2,2019-09-07T09:00:00Z,-79.66,54.62,3.40,16.54,,8.62,,, NC,, NC
CH7-2,2019-09-07T10:00:00Z,-79.66,54.62,3.40,16.73,,8.43,,, NC,, NC
CH7-2,2019-09-07T11:00:00Z,-79.66,54.62,3.40,17.19,,8.34,,, NC,, NC
CH7-2,2019-09-07T12:00:00Z,-79.66,54.62,3.40,17.37,,8.27,,, NC,, NC
CH7-2,2019-09-07T13:00:00Z,-79.66,54.62,3.40,17.68,,8.18,,, NC,, NC
CH7-2,2019-09-07T14:00:00Z,-79.66,54.62,3.40,17.66,,8.17,,, NC,, NC
CH7-2,2019-09-07T15:00:00Z,-79.66,54.62,3.40,17.65,,8.16,,, NC,, NC
CH7-2,2019-09-07T16:00:00Z,-79.66,54.62,3.40,17.62,,8.18,,, NC,, NC
CH7-2,2019-09-07T17:00:00Z,-79.66,54.62,3.40,17.56,,8.26,,, NC,, NC
CH7-2,2019-09-07T18:00:00Z,-79.66,54.62,3.40,17.35,,8.53,,, NC,, NC
CH7-2,2019-09-07T19:00:00Z,-79.66,54.62,3.40,16.93,,8.73,,, NC,, NC
CH7-2,2019-09-07T20:00:00Z,-79.66,54.62,3.40,16.79,,8.71,,, NC,, NC
CH7-2,2019-09-07T21:00:00Z,-79.66,54.62,3.40,17.12,,8.63,,, NC,, NC
CH7-2,2019-09-07T22:00:00Z,-79.66,54.62,3.40,17.30,,8.24,,, NC,, NC
CH7-2,2019-09-07T23:00:00Z,-79.66,54.62,3.40,17.74,,7.89,,, NC,, NC
CH7-2,2019-09-08T00:00:00Z,-79.66,54.62,3.40,17.93,,7.78,,, NC,, NC
CH7-2,2019-09-08T01:00:00Z,-79.66,54.62,3.40,18.26,,7.62,,, NC,, NC
CH7-2,2019-09-08T02:00:00Z,-79.66,54.62,3.40,18.49,,7.39,,, NC,, NC
CH7-2,2019-09-08T03:00:00Z,-79.66,54.62,3.40,18.61,,7.29,,, NC,, NC
CH7-2,2019-09-08T04:00:00Z,-79.66,54.62,3.40,18.63,,7.25,,, NC,, NC
CH7-2,2019-09-08T05:00:00Z,-79.66,54.62,3.40,18.57,,7.30,,, NC,, NC